When you browse on this site, cookies collect data to enhance your experience and personalize the content and advertising you see.
Visit our Privacy Policy to learn more. By continuing to use the site, you agree to this use of cookies and data.
  • In Portugal
  • List of Countries
  • For 7 days
  • Water Temperature
  • Satellite Maps
  • Weather Map
  • Weather Widgets
  • user-avatar
    Login

    Hourly Weather Karak

    Today, 16 July, Tuesday

    Time Temperature Precipitation Wind Pressure Humidity
    00:00 +19°C° 0 mm 2 mps 678 mmHg 76%
    01:00 +18°C° 0 mm 2 mps 677 mmHg 78%
    02:00 +17°C° 0 mm 2 mps 677 mmHg 81%
    03:00 +17°C° 0 mm 2 mps 677 mmHg 82%
    04:00 +16°C° 0 mm 1 mps 677 mmHg 82%
    05:00 +16°C° 0 mm 1 mps 677 mmHg 82%
    06:00 +19°C° 0 mm 1 mps 677 mmHg 70%
    07:00 +20°C° 0 mm 2 mps 678 mmHg 58%
    08:00 +24°C° 0 mm 3 mps 679 mmHg 46%
    09:00 +25°C° 0 mm 3 mps 679 mmHg 40%
    10:00 +27°C° 0 mm 4 mps 679 mmHg 34%
    11:00 +29°C° 0 mm 4 mps 680 mmHg 28%
    12:00 +30°C° 0 mm 4 mps 679 mmHg 28%
    13:00 +32°C° 0 mm 5 mps 679 mmHg 27%
    14:00 +33°C° 0 mm 5 mps 679 mmHg 27%
    15:00 +33°C° 0 mm 5 mps 679 mmHg 27%
    16:00 +32°C° 0 mm 5 mps 679 mmHg 27%
    17:00 +32°C° 0 mm 5 mps 679 mmHg 26%
    18:00 +30°C° 0 mm 4 mps 679 mmHg 30%
    19:00 +28°C° 0 mm 3 mps 678 mmHg 34%
    20:00 +26°C° 0 mm 2 mps 678 mmHg 37%
    21:00 +25°C° 0 mm 2 mps 678 mmHg 39%
    22:00 +24°C° 0 mm 1 mps 678 mmHg 40%
    23:00 +23°C° 0 mm 1 mps 678 mmHg 42%

    Tomorrow, 17 July, Wednesday

    Time Temperature Precipitation Wind Pressure Humidity
    00:00 +23°C° 0 mm 1 mps 677 mmHg 42%
    01:00 +23°C° 0 mm 1 mps 677 mmHg 42%
    02:00 +22°C° 0 mm 1 mps 676 mmHg 42%
    03:00 +22°C° 0 mm 1 mps 676 mmHg 41%
    04:00 +22°C° 0 mm 1 mps 676 mmHg 41%
    05:00 +22°C° 0 mm 1 mps 676 mmHg 40%
    06:00 +26°C° 0 mm 2 mps 677 mmHg 34%
    07:00 +29°C° 0 mm 2 mps 678 mmHg 29%
    08:00 +33°C° 0 mm 3 mps 678 mmHg 23%
    09:00 +35°C° 0 mm 4 mps 679 mmHg 21%
    10:00 +36°C° 0 mm 5 mps 679 mmHg 18%
    11:00 +39°C° 0 mm 6 mps 679 mmHg 16%
    12:00 +40°C° 0 mm 7 mps 679 mmHg 15%
    13:00 +40°C° 0 mm 8 mps 679 mmHg 14%
    14:00 +42°C° 0 mm 9 mps 679 mmHg 13%
    15:00 +40°C° 0 mm 8 mps 678 mmHg 16%
    16:00 +39°C° 0 mm 8 mps 678 mmHg 18%
    17:00 +36°C° 0 mm 7 mps 678 mmHg 20%
    18:00 +34°C° 0 mm 5 mps 678 mmHg 25%
    19:00 +30°C° 0 mm 3 mps 678 mmHg 29%
    20:00 +27°C° 0 mm 1 mps 677 mmHg 33%
    21:00 +27°C° 0 mm 1 mps 677 mmHg 34%
    22:00 +26°C° 0 mm 1 mps 677 mmHg 35%
    23:00 +26°C° 0 mm 1 mps 678 mmHg 36%

    Day after tomorrow, 18 July, Thursday

    Time Temperature Precipitation Wind Pressure Humidity
    00:00 +25°C° 0 mm 1 mps 677 mmHg 38%
    01:00 +25°C° 0 mm 1 mps 677 mmHg 41%
    02:00 +24°C° 0 mm 1 mps 676 mmHg 43%
    03:00 +23°C° 0 mm 1 mps 677 mmHg 46%
    04:00 +23°C° 0 mm 1 mps 677 mmHg 48%
    05:00 +23°C° 0 mm 1 mps 677 mmHg 51%
    06:00 +25°C° 0 mm 2 mps 677 mmHg 45%
    07:00 +26°C° 0 mm 2 mps 678 mmHg 40%
    08:00 +28°C° 0 mm 3 mps 678 mmHg 35%
    09:00 +30°C° 0 mm 3 mps 679 mmHg 32%
    10:00 +32°C° 0 mm 4 mps 679 mmHg 29%
    11:00 +34°C° 0 mm 4 mps 679 mmHg 26%
    12:00 +35°C° 0 mm 5 mps 679 mmHg 25%
    13:00 +35°C° 0 mm 5 mps 679 mmHg 24%
    14:00 +36°C° 0 mm 6 mps 679 mmHg 24%
    15:00 +35°C° 0 mm 6 mps 678 mmHg 27%
    16:00 +33°C° 0 mm 7 mps 678 mmHg 30%
    17:00 +32°C° 0 mm 8 mps 678 mmHg 33%
    18:00 +29°C° 0 mm 6 mps 678 mmHg 37%
    19:00 +27°C° 0 mm 4 mps 679 mmHg 42%
    20:00 +25°C° 0 mm 2 mps 679 mmHg 47%
    21:00 +25°C° 0 mm 3 mps 679 mmHg 49%
    22:00 +24°C° 0 mm 3 mps 679 mmHg 51%
    23:00 +22°C° 0 mm 3 mps 679 mmHg 53%

    19 July, Friday

    Time Temperature Precipitation Wind Pressure Humidity
    00:00 +21°C° 0 mm 3 mps 679 mmHg 57%
    01:00 +20°C° 0 mm 3 mps 679 mmHg 61%
    02:00 +19°C° 0 mm 3 mps 679 mmHg 66%
    03:00 +19°C° 0 mm 2 mps 678 mmHg 71%
    04:00 +18°C° 0 mm 2 mps 678 mmHg 76%
    05:00 +17°C° 0 mm 2 mps 678 mmHg 81%
    06:00 +19°C° 0 mm 2 mps 679 mmHg 72%
    07:00 +21°C° 0 mm 2 mps 679 mmHg 63%
    08:00 +23°C° 0 mm 2 mps 680 mmHg 54%
    09:00 +25°C° 0 mm 3 mps 680 mmHg 46%
    10:00 +27°C° 0 mm 3 mps 680 mmHg 39%
    11:00 +29°C° 0 mm 4 mps 680 mmHg 31%
    12:00 +30°C° 0 mm 4 mps 680 mmHg 28%
    13:00 +32°C° 0 mm 4 mps 679 mmHg 26%
    14:00 +33°C° 0 mm 4 mps 679 mmHg 23%
    15:00 +32°C° 0 mm 5 mps 679 mmHg 25%
    16:00 +32°C° 0 mm 5 mps 679 mmHg 28%
    17:00 +30°C° 0 mm 5 mps 679 mmHg 31%
    18:00 +28°C° 0 mm 4 mps 679 mmHg 37%
    19:00 +26°C° 0 mm 4 mps 679 mmHg 44%
    20:00 +24°C° 0 mm 3 mps 679 mmHg 51%
    21:00 +22°C° 0 mm 3 mps 679 mmHg 55%
    22:00 +21°C° 0 mm 2 mps 679 mmHg 60%
    23:00 +20°C° 0 mm 2 mps 679 mmHg 64%

    20 July, Saturday

    Time Temperature Precipitation Wind Pressure Humidity
    00:00 +19°C° 0 mm 2 mps 678 mmHg 67%
    01:00 +19°C° 0 mm 2 mps 678 mmHg 71%
    02:00 +18°C° 0 mm 2 mps 678 mmHg 74%
    03:00 +17°C° 0 mm 2 mps 678 mmHg 76%
    04:00 +18°C° 0 mm 1 mps 678 mmHg 78%
    05:00 +16°C° 0 mm 1 mps 677 mmHg 81%
    06:00 +18°C° 0 mm 2 mps 678 mmHg 70%
    07:00 +20°C° 0 mm 2 mps 679 mmHg 59%
    08:00 +24°C° 0 mm 3 mps 679 mmHg 48%
    09:00 +25°C° 0 mm 3 mps 680 mmHg 42%
    10:00 +27°C° 0 mm 3 mps 680 mmHg 36%
    11:00 +28°C° 0 mm 3 mps 680 mmHg 30%
    12:00 +29°C° 0 mm 4 mps 680 mmHg 27%
    13:00 +30°C° 0 mm 4 mps 679 mmHg 25%
    14:00 +33°C° 0 mm 4 mps 679 mmHg 22%
    15:00 +32°C° 0 mm 5 mps 679 mmHg 25%
    16:00 +32°C° 0 mm 5 mps 679 mmHg 28%
    17:00 +30°C° 0 mm 5 mps 679 mmHg 31%
    18:00 +28°C° 0 mm 5 mps 679 mmHg 39%
    19:00 +26°C° 0 mm 4 mps 679 mmHg 47%
    20:00 +22°C° 0 mm 3 mps 679 mmHg 55%
    21:00 +21°C° 0 mm 2 mps 679 mmHg 59%
    22:00 +21°C° 0 mm 2 mps 678 mmHg 63%
    23:00 +20°C° 0 mm 2 mps 678 mmHg 67%

    21 July, Sunday

    Time Temperature Precipitation Wind Pressure Humidity
    00:00 +19°C° 0 mm 2 mps 678 mmHg 70%
    01:00 +18°C° 0 mm 2 mps 678 mmHg 74%
    02:00 +18°C° 0 mm 2 mps 677 mmHg 77%
    03:00 +17°C° 0 mm 2 mps 677 mmHg 79%
    04:00 +16°C° 0 mm 2 mps 677 mmHg 81%
    05:00 +16°C° 0 mm 2 mps 677 mmHg 83%
    06:00 +18°C° 0 mm 2 mps 678 mmHg 71%
    07:00 +20°C° 0 mm 2 mps 678 mmHg 59%
    08:00 +24°C° 0 mm 2 mps 679 mmHg 47%
    09:00 +26°C° 0 mm 2 mps 679 mmHg 41%
    10:00 +27°C° 0 mm 3 mps 679 mmHg 36%
    11:00 +29°C° 0 mm 3 mps 679 mmHg 31%
    12:00 +30°C° 0 mm 3 mps 679 mmHg 27%
    13:00 +33°C° 0 mm 3 mps 679 mmHg 23%
    14:00 +34°C° 0 mm 4 mps 679 mmHg 19%
    15:00 +34°C° 0 mm 4 mps 679 mmHg 20%
    16:00 +33°C° 0 mm 5 mps 678 mmHg 21%
    17:00 +33°C° 0 mm 5 mps 678 mmHg 22%
    18:00 +29°C° 0 mm 4 mps 678 mmHg 33%
    19:00 +27°C° 0 mm 4 mps 678 mmHg 44%
    20:00 +25°C° 0 mm 3 mps 678 mmHg 55%
    21:00 +24°C° 0 mm 3 mps 678 mmHg 60%
    22:00 +22°C° 0 mm 3 mps 678 mmHg 65%
    23:00 +21°C° 0 mm 2 mps 678 mmHg 70%
    Show more